Ypsilanti, MI

6:32 AM EST on November 23, 2017 (GMT -0500)
Willow Run

Weather History for KYIP - September, 2013

Change the Weather History Date:

Sunday, September 29, 2013

  Actual Average Record
Temperature  
Mean Temperature 63 °F -  
Max Temperature 66 °F 69 °F 86 °F (1986)
Min Temperature 60 °F 47 °F 34 °F (1970)
Degree Days  
Heating Degree Days 2    
Growing Degree Days 13 (Base 50)    
Moisture  
Dew Point 58 °F    
Average Humidity 81    
Maximum Humidity 88    
Minimum Humidity 70    
Precipitation  
Precipitation 0.05 in - - ()
Sea Level Pressure  
Sea Level Pressure 29.99 in    
Wind  
Wind Speed 6 mph (SW)    
Max Wind Speed 10 mph    
Max Gust Speed -    
Visibility 6 miles    
Events Rain    
Averages and records for this station are not official NWS values.
T = Trace of Precipitation, MM = Missing Value Source: NWS Daily Summary

Daily Weather History Graph

Daily Weather History Graph

Search for Another Location

Airport or City:

Trip Planner

Search our weather history database for the weather conditions in past years. The results will help you decide how hot, cold, wet, or windy it might be!

Date:

Astronomy

Sep. 29, 2013 Rise Set
Actual Time 7:29 AM EDT 7:18 PM EDT
Civil Twilight 7:01 AM EDT 7:46 PM EDT
Nautical Twilight 6:28 AM EDT 8:19 PM EDT
Astronomical Twilight 5:55 AM EDT 8:51 PM EDT
Moon 2:04 AM EDT (9/29) 4:18 PM EDT (9/29)
Length of Visible Light 12h 45m
Length of Day
11h 49m
Waning Crescent, 27% of the Moon is Illuminated
Sep 29
Waning Crescent
Oct 4
New
Oct 11
First Quarter
Oct 18
Full
Oct 26
Last Quarter

Hourly Weather History & Observations

Time (EDT) Temp. Dew Point Humidity Pressure Visibility Wind Dir Wind Speed Gust Speed Precip Events Conditions
12:53 AM 61.0 °F 54.0 °F 78% 30.03 in 10.0 mi South 4.6 mph - N/A   Clear
1:53 AM 62.1 °F 53.1 °F 72% 30.02 in 10.0 mi South 4.6 mph - N/A   Overcast
2:53 AM 62.1 °F 53.1 °F 72% 30.00 in 10.0 mi South 6.9 mph - N/A   Mostly Cloudy
3:53 AM 61.0 °F 53.1 °F 75% 29.99 in 10.0 mi South 5.8 mph - N/A   Mostly Cloudy
4:53 AM 61.0 °F 53.1 °F 75% 29.98 in 10.0 mi South 4.6 mph - N/A   Overcast
5:53 AM 60.1 °F 52.0 °F 75% 29.98 in 10.0 mi SSW 5.8 mph - N/A   Partly Cloudy
6:53 AM 61.0 °F 53.1 °F 75% 29.98 in 10.0 mi SSW 5.8 mph - N/A   Clear
7:53 AM 62.1 °F 55.0 °F 78% 29.99 in 10.0 mi SSW 5.8 mph - N/A   Scattered Clouds
8:53 AM 64.0 °F 54.0 °F 70% 29.99 in 10.0 mi SW 5.8 mph - N/A   Overcast
9:53 AM 64.0 °F 54.0 °F 70% 30.00 in 10.0 mi SW 9.2 mph - N/A   Overcast
10:53 AM 63.0 °F 57.9 °F 84% 30.00 in 3.0 mi SSW 4.6 mph - 0.01 in Rain Rain
11:00 AM 62.6 °F 57.2 °F 82% 30.01 in 2.5 mi SW 5.8 mph - 0.00 in Rain Light Rain
11:08 AM 62.6 °F 57.2 °F 82% 30.01 in 5.0 mi SSW 6.9 mph - 0.00 in Rain Light Rain
11:22 AM 64.4 °F 59.0 °F 83% 30.01 in 5.0 mi South 6.9 mph - 0.00 in Rain Light Rain
11:53 AM 64.9 °F 59.0 °F 81% 30.00 in 5.0 mi SSW 8.1 mph - 0.00 in   Haze
12:09 PM 64.4 °F 60.8 °F 88% 30.01 in 4.0 mi SSW 6.9 mph - N/A   Haze
12:36 PM 64.4 °F 59.0 °F 83% 30.01 in 4.0 mi SSW 8.1 mph - 0.01 in Rain Light Rain
12:53 PM 64.9 °F 57.9 °F 78% 30.00 in 4.0 mi SSW 8.1 mph - 0.01 in Rain Light Rain
1:36 PM 66.2 °F 60.8 °F 83% 30.00 in 5.0 mi South 5.8 mph - 0.00 in   Haze
1:53 PM 66.0 °F 60.1 °F 81% 29.99 in 5.0 mi South 8.1 mph - 0.00 in   Haze
2:53 PM 66.0 °F 59.0 °F 78% 29.98 in 5.0 mi SSW 4.6 mph - N/A   Haze
3:26 PM 66.2 °F 60.8 °F 83% 29.98 in 2.5 mi South 5.8 mph - 0.00 in Rain Light Rain
3:53 PM 66.0 °F 61.0 °F 84% 29.97 in 2.0 mi South 5.8 mph - 0.00 in Rain Light Rain
4:09 PM 66.2 °F 60.8 °F 83% 29.98 in 3.0 mi SSW 5.8 mph - 0.00 in   Haze
4:22 PM 66.2 °F 60.8 °F 83% 29.98 in 1.8 mi South 4.6 mph - 0.00 in Rain Light Rain
4:53 PM 66.0 °F 59.0 °F 78% 29.97 in 1.2 mi SSW 3.5 mph - 0.00 in   Haze
5:13 PM 66.2 °F 60.8 °F 83% 29.98 in 0.8 mi North 5.8 mph - 0.01 in Rain Rain
5:26 PM 64.4 °F 59.0 °F 83% 29.98 in 1.8 mi North 8.1 mph - 0.01 in Rain Light Rain
5:32 PM 64.4 °F 60.8 °F 88% 29.98 in 2.5 mi North 8.1 mph - 0.01 in Rain Light Rain
5:44 PM 64.4 °F 60.8 °F 88% 29.99 in 1.8 mi NNW 8.1 mph - 0.01 in Rain Light Rain
5:48 PM 64.4 °F 60.8 °F 88% 29.99 in 2.0 mi NNW 9.2 mph - 0.01 in Rain Light Rain
5:53 PM 64.0 °F 59.0 °F 84% 29.98 in 2.0 mi NNW 8.1 mph - 0.01 in Rain Light Rain
6:00 PM 64.4 °F 59.0 °F 83% 29.99 in 2.5 mi NNW 8.1 mph - 0.00 in Rain Light Rain
6:08 PM 64.4 °F 57.2 °F 77% 29.99 in 4.0 mi North 9.2 mph - 0.00 in Rain Light Rain
6:20 PM 62.6 °F 57.2 °F 82% 29.99 in 8.0 mi North 10.4 mph - 0.00 in   Overcast
6:53 PM 63.0 °F 57.9 °F 84% 29.99 in 9.0 mi North 6.9 mph - 0.00 in   Overcast
7:02 PM 62.6 °F 57.2 °F 82% 30.00 in 5.0 mi North 6.9 mph - N/A   Haze
7:53 PM 62.1 °F 57.0 °F 84% 29.99 in 10.0 mi NNW 4.6 mph - N/A   Overcast
8:06 PM 62.6 °F 57.2 °F 82% 30.00 in 10.0 mi NNW 4.6 mph - N/A   Overcast
8:14 PM 62.6 °F 57.2 °F 82% 30.00 in 10.0 mi Calm Calm - N/A   Overcast
8:29 PM 62.6 °F 57.2 °F 82% 30.00 in 10.0 mi NNE 4.6 mph - N/A   Overcast
8:38 PM 62.6 °F 57.2 °F 82% 30.00 in 10.0 mi Calm Calm - 0.01 in   Overcast
8:53 PM 62.1 °F 57.9 °F 86% 29.98 in 10.0 mi NE 4.6 mph - 0.01 in   Overcast
9:00 PM 62.6 °F 57.2 °F 82% 30.00 in 10.0 mi NE 3.5 mph - N/A   Overcast
9:53 PM 62.1 °F 57.9 °F 86% 29.99 in 10.0 mi North 3.5 mph - N/A   Overcast
10:53 PM 62.1 °F 57.0 °F 84% 29.98 in 10.0 mi NNE 5.8 mph - N/A   Overcast
11:53 PM 62.1 °F 55.9 °F 80% 29.99 in 10.0 mi North 4.6 mph - 0.01 in   Overcast